Change the Weather History Date:

Wednesday, September 25, 2013

  Actual Average Record
Temperature  
Mean Temperature 68 °F 62 °F  
Max Temperature 83 °F 75 °F 88 °F (2007)
Min Temperature 53 °F 50 °F 39 °F (2001)
Degree Days  
Heating Degree Days 0 4  
Month to date heating degree days 34 39  
Since 1 July heating degree days 44 45  
Cooling Degree Days 3 2  
Month to date cooling degree days 162 101  
Year to date cooling degree days 1034 1019  
Growing Degree Days 18 (Base 50)    
Moisture  
Dew Point 55 °F    
Average Humidity 65    
Maximum Humidity 93    
Minimum Humidity 37    
Precipitation  
Precipitation 0.00 in 0.07 in 1.46 in (2005)
Month to date precipitation 0.53 2.53  
Year to date precipitation 26.90 28.84  
Sea Level Pressure  
Sea Level Pressure 29.88 in    
Wind  
Wind Speed 5 mph (ENE)    
Max Wind Speed 12 mph    
Max Gust Speed 15 mph    
Visibility 10 miles    
Events      
T = Trace of Precipitation, MM = Missing Value Source: NWS Daily Summary

Daily Weather History Graph

Daily Weather History Graph

Search for Another Location

Airport or City:

Trip Planner

Search our weather history database for the weather conditions in past years. The results will help you decide how hot, cold, wet, or windy it might be!

Date:

Astronomy

Sep. 25, 2013 Rise Set
Actual Time 6:46 AM CDT 6:47 PM CDT
Civil Twilight 6:19 AM CDT 7:14 PM CDT
Nautical Twilight 5:47 AM CDT 7:45 PM CDT
Astronomical Twilight 5:15 AM CDT 8:17 PM CDT
Moon 10:54 PM CDT (9/25) 12:51 PM CDT (9/25)
Length of Visible Light 12h 54m
Length of Day
12h 01m
Waning Gibbous, 64% of the Moon is Illuminated
Sep 25
Waning Gibbous
Sep 26
Last Quarter
Oct 4
New
Oct 11
First Quarter
Oct 18
Full

Hourly Weather History & Observations

Time (CDT) Temp. Heat Index Dew Point Humidity Pressure Visibility Wind Dir Wind Speed Gust Speed Precip Events Conditions
12:54 AM 62.1 °F - 57.9 °F 86% 29.86 in 10.0 mi ENE 5.8 mph - N/A   Overcast
1:54 AM 60.1 °F - 55.9 °F 86% 29.86 in 10.0 mi ENE 3.5 mph - N/A   Clear
2:54 AM 57.9 °F - 55.0 °F 90% 29.85 in 10.0 mi ENE 4.6 mph - N/A   Scattered Clouds
3:54 AM 57.9 °F - 54.0 °F 87% 29.85 in 10.0 mi ENE 4.6 mph - N/A   Mostly Cloudy
4:54 AM 55.9 °F - 53.1 °F 90% 29.87 in 10.0 mi NE 4.6 mph - N/A   Mostly Cloudy
5:54 AM 55.9 °F - 52.0 °F 87% 29.87 in 10.0 mi Calm Calm - N/A   Scattered Clouds
6:54 AM 54.0 °F - 51.1 °F 90% 29.89 in 9.0 mi NNE 3.5 mph - N/A   Clear
7:54 AM 57.9 °F - 53.1 °F 84% 29.90 in 10.0 mi NE 5.8 mph - N/A   Clear
8:54 AM 63.0 °F - 55.0 °F 75% 29.91 in 10.0 mi East 5.8 mph - N/A   Partly Cloudy
9:54 AM 69.1 °F - 57.0 °F 65% 29.90 in 10.0 mi ENE 5.8 mph - N/A   Clear
10:54 AM 75.0 °F - 59.0 °F 57% 29.90 in 10.0 mi Variable 5.8 mph - N/A   Clear
11:54 AM 79.0 °F - 57.9 °F 48% 29.89 in 10.0 mi East 10.4 mph - N/A   Clear
12:54 PM 79.0 °F - 57.9 °F 48% 29.88 in 10.0 mi East 8.1 mph - N/A   Scattered Clouds
1:54 PM 80.1 °F 80.2 °F 55.9 °F 43% 29.86 in 10.0 mi Variable 3.5 mph - N/A   Partly Cloudy
2:54 PM 82.9 °F 82.1 °F 55.9 °F 39% 29.86 in 10.0 mi NE 6.9 mph - N/A   Mostly Cloudy
3:54 PM 82.0 °F 81.3 °F 54.0 °F 38% 29.86 in 10.0 mi Variable 4.6 mph - N/A   Clear
4:54 PM 82.0 °F 81.4 °F 55.0 °F 39% 29.86 in 10.0 mi NE 5.8 mph - N/A   Clear
5:54 PM 80.1 °F 80.1 °F 55.0 °F 42% 29.86 in 10.0 mi NE 9.2 mph - N/A   Clear
6:54 PM 70.0 °F - 57.0 °F 63% 29.87 in 10.0 mi ENE 4.6 mph - N/A   Clear
7:54 PM 64.9 °F - 55.9 °F 73% 29.88 in 10.0 mi NE 4.6 mph - N/A   Clear
8:54 PM 62.1 °F - 55.9 °F 80% 29.90 in 10.0 mi NE 4.6 mph - N/A   Clear
9:54 PM 63.0 °F - 55.9 °F 78% 29.91 in 10.0 mi ENE 3.5 mph - N/A   Clear
10:54 PM 62.1 °F - 55.9 °F 80% 29.92 in 10.0 mi NE 6.9 mph - N/A   Overcast
11:54 PM 57.9 °F - 53.1 °F 84% 29.92 in 10.0 mi Calm Calm - N/A   Clear